Regional Weather Roundup
Issued by NWS Little Rock, AR

Home | Current Version | Previous Version | Text Only | Print | Product List | Glossary Off
Versions: 1 2 3 4 5 6 7 8 9 10 11 12 13 14 15 16 17 18 19 20 21 22 23 24 25 26 27 28 29 30 31 32 33 34 35 36 37 38 39 40 41 42 43 44 45 46 47 48 49 50

000
ASUS44 KLZK 290105
RWRLZK

WEATHER ROUNDUP FOR ARKANSAS
NATIONAL WEATHER SERVICE LITTLE ROCK AR
800 PM CDT SAT MAR 28 2015

NOTE: "FAIR" INDICATES FEW OR NO CLOUDS BELOW 12,000 FEET WITH NO
SIGNIFICANT WEATHER AND/OR OBSTRUCTIONS TO VISIBILITY.

ARZ001-003-010-029-290200-
NORTHWEST ARKANSAS

CITY           SKY/WX    TMP DP  RH WIND       PRES   REMARKS
FAYETTEVILLE   CLEAR     52  41  66 E7        30.11R
FORT SMITH     CLEAR     51  39  63 E17       30.13R
HARRISON       CLEAR     39  31  72 E9        30.18R
BENTONVILLE    CLEAR     54  37  54 SE8       30.11R
ROGERS         CLEAR     51  38  60 E10       30.12R
SILOAM SPGS    CLEAR     54  37  54 SE9       30.11R
HIGHFILL       CLEAR     52  40  63 S8        30.09S
SPRINGDALE     CLEAR     54  39  58 SE8       30.13R
$$

ARZ004-005-016-290200-
NORTH CENTRAL ARKANSAS

CITY           SKY/WX    TMP DP  RH WIND       PRES   REMARKS
BATESVILLE     CLOUDY    37  32  81 SE5       30.29R
FLIPPIN        CLOUDY    37  28  70 E8        30.23R
MTN HOME       CLOUDY    37  32  82 E10       30.23R
$$

ARZ040-041-290200-
WEST CENTRAL ARKANSAS

CITY           SKY/WX    TMP DP  RH WIND       PRES   REMARKS
MENA           CLEAR     55  43  62 E13       30.12R
MOUNT IDA      CLEAR     50  38  63 E5        30.14R
$$

ARZ009-017-025-026-028-290200-
NORTHEAST ARKANSAS

CITY           SKY/WX    TMP DP  RH WIND       PRES   REMARKS
CORNING          N/A     39  34  81 SW5       30.30S
JONESBORO      CLOUDY    39  31  72 CALM      30.30R
NEWPORT        CLOUDY    40  34  79 SE5       30.31R
BLYTHEVILLE    PTCLDY    40  26  57 W3        30.30R
$$

ARZ022-023-033-042-044-290200-
CENTRAL ARKANSAS

CITY           SKY/WX    TMP DP  RH WIND       PRES   REMARKS
LITTLE ROCK    PTCLDY    44  32  62 E12       30.26R
N LITTLE ROCK  PTCLDY    43  34  71 E12       30.26R
JACKSONVILLE   CLEAR     43  31  64 E9        30.26R
SEARCY         CLEAR     38  33  82 E5        30.31R
HOT SPRINGS    CLEAR     50  36  58 E10       30.19R
RUSSELLVILLE   CLEAR     47  32  56 E8G17     30.21R
CLINTON        FAIR      39  32  75 E6        30.28R
$$

ARZ036-290200-
EAST ARKANSAS

CITY           SKY/WX    TMP DP  RH WIND       PRES   REMARKS
WEST MEMPHIS   CLOUDY    41  29  62 CALM      30.29R
$$

ARZ050-053-066-070-073-290200-
SOUTHWEST ARKANSAS

CITY           SKY/WX    TMP DP  RH WIND       PRES   REMARKS
ARKADELPHIA    FAIR      51  39  63 E8        30.20R
CAMDEN         CLEAR     50  36  57 MISG      30.19R
TEXARKANA      CLEAR     62  45  53 E12G21    30.09R
EL DORADO      CLEAR     53  39  59 E17       30.17R
DE QUEEN       CLEAR     60  44  55 E13G20    30.08R
$$

ARZ056-057-069-290200-
SOUTHEAST ARKANSAS

CITY           SKY/WX    TMP DP  RH WIND       PRES   REMARKS
PINE BLUFF     CLEAR     45  33  63 E10       30.25R
STUTTGART      CLEAR     43  30  61 E9        30.28R
MONTICELLO     CLEAR     47  33  58 E8        30.23R

$$





USA.gov is the U.S. government's official web portal to all federal, state and local government web resources and services.